Location: Clover Hill
(31.9979°N, 86.7016°W)
Time: 00:44:35
(UTC+00:00)

Daily predictions for brighter satellites

Satellite Brightness Start Highest point End
(mag) Time Altitude Azimuth Time Altitude Azimuth Time Altitude Azimuth
CZ-4 R/B 4.4 00:05:47 10° SSE 00:09:50 66° ENE 00:13:56 10° N
USA 234 4.0 00:04:16 10° ENE 00:09:57 31° SE 00:15:37 10° S
COSMO-SKYMED 1 3.6 00:06:24 10° N 00:10:38 53° WNW 00:14:50 10° SSW
ISS -3.5 00:11:11 10° SW 00:14:31 75° NW 00:17:53 10° NE
H-2A R/B 2.9 00:15:09 10° SE 00:19:13 27° ENE 00:23:22 10° NNE
Iridium 4 Rocket 3.3 00:17:59 10° S 00:22:38 73° E 00:27:46 10° N
Cosmos 158 Rocket 4.0 00:17:54 10° N 00:23:06 63° ENE 00:28:06 10° SSE
ARGOS 4.3 00:18:58 10° ESE 00:23:06 23° ENE 00:27:16 10° NNE
GPS 2-04 Rocket1 3.8 00:23:36 10° W 00:27:34 41° SSW 00:31:28 10° SE
SJ 16-02 3.9 00:24:37 10° SW 00:28:15 25° WNW 00:31:56 10° NNW
Cosmos 1437 3.5 00:27:25 10° NNE 00:30:01 26° ENE 00:32:36 10° SE
DMSP B5D1-3 4.4 00:25:47 10° NNE 00:30:53 79° ESE 00:35:59 10° S
Cosmos 1939 Rocket 3.8 00:27:39 10° S 00:31:38 52° W 00:35:41 10° NNW
Helios 1A Rocket 3.9 00:28:44 10° S 00:32:41 50° W 00:36:41 10° NNW
Milstar 3 Cent rocket 3.5 00:26:20 10° SW 00:33:26 32° SSE 00:37:15 14° ESE
CZ-2C R/B 3.7 00:29:27 10° NE 00:33:55 24° E 00:38:24 10° SSE
NOSS 2-2 (E) 3.8 00:31:06 10° SW 00:34:33 53° WNW 00:38:04 10° NNE
Okean 2 Rocket 4.0 00:30:53 10° SSE 00:34:42 28° E 00:38:31 10° NNE
Cosmos 1378 Rocket 4.4 00:31:52 10° NNW 00:36:03 53° W 00:40:13 10° S
SL-16 R/B 3.8 00:30:56 10° NW 00:36:07 38° WSW 00:41:16 10° S
CZ-2D R/B 4.0 00:34:24 10° S 00:38:12 57° W 00:42:02 10° NNW
ATLAS 2AS CENTAUR R/B 4.3 00:34:25 10° SE 00:38:34 15° ESE 00:40:32 14° E
Cosmos 2263 Rocket 3.2 00:33:16 10° SW 00:38:38 50° WNW 00:44:02 10° N
Okean-O 3.1 00:34:16 10° S 00:38:39 65° WSW 00:43:03 10° NNW
HJ-1C 3.8 00:37:20 10° SE 00:40:25 39° ENE 00:43:30 10° N
Cosmos 1900 4.4 00:35:35 10° NNW 00:40:46 77° ENE 00:45:53 10° SSE
SJ-11-01 4.5 00:36:15 10° SSE 00:40:47 49° ENE 00:45:20 10° N
DELTA 2 R/B (1) 4.1 00:37:32 10° WNW 00:42:52 47° NNE 00:46:52 17° E
GOES 2 Rocket 4.0 00:39:19 10° SW 00:42:59 30° SSE 00:45:16 19° ESE
NOSS 2-2 (D) 3.7 00:39:33 10° SW 00:43:04 57° WNW 00:46:34 10° NNE
CZ-2C R/B 3.0 00:38:41 10° SSE 00:43:43 68° ENE 00:49:04 10° N
Cosmos 1844 Rocket 3.3 00:41:05 10° SSE 00:45:53 31° ESE 00:50:43 10° NE
Cosmos 1300 Rocket 4.0 00:42:43 10° SSE 00:46:43 37° E 00:50:47 10° NNE
SEDSat Delta rocket 4.3 00:46:03 10° W 00:51:00 39° SSW 00:54:18 16° SE
Ariane Rocket 4.0 00:50:37 21° E 00:52:18 25° ENE 00:56:22 10° NNE
YAOGAN 1 3.0 00:48:20 10° S 00:52:36 63° W 00:56:53 10° NNW
USA 186 3.8 00:54:52 15° NE 00:54:52 15° NE 00:55:48 10° NNE
Exosat Rocket 4.4 00:52:31 10° SSE 00:58:14 33° ESE 01:02:55 10° NE
Cosmos 1464 Rocket 3.9 00:54:05 10° S 01:00:06 64° E 01:06:10 10° NNE
Cosmos 2298 Rocket 4.1 00:55:59 10° S 01:01:09 55° ESE 01:06:21 10° NNE
Cosmos 1943 3.1 00:56:22 10° NNW 01:02:00 69° ENE 01:06:43 15° SSE
Meteor 1-12 Rocket 4.3 00:56:14 10° S 01:02:08 68° E 01:07:58 10° NNE
Okean 2 4.1 00:58:55 10° NNW 01:03:00 56° W 01:07:02 10° S
CSL-04 Debris 4.3 01:00:41 10° S 01:06:04 75° WSW 01:11:27 10° NNW
CZ-4 R/B 3.5 01:06:41 10° SSW 01:10:20 29° W 01:14:02 10° NW
Meteor 1-21 4.5 01:09:24 10° NNW 01:14:59 70° W 01:20:31 10° S
CSL-04 Rocket 4.1 01:10:06 10° S 01:15:25 64° WSW 01:20:50 10° NNW
Cosmos 2151 Rocket 3.5 01:11:31 10° S 01:15:52 60° E 01:20:16 10° NNE
Cosmos 1867 4.0 01:15:30 10° NNW 01:20:36 40° ENE 01:21:22 38° ENE
Cosmos 1603 4.0 01:16:06 10° NNW 01:21:41 66° WSW 01:26:55 12° S
CZ-2C R/B 1.3 01:18:28 10° W 01:21:54 49° N 01:22:04 48° N
USA 102 3.8 01:22:51 79° NNE 01:22:51 79° NNE 01:29:12 10° NNW
Cosmos 1025 Rocket 3.2 01:19:49 10° N 01:23:50 50° ENE 01:23:50 50° ENE
Cosmos 2150 Rocket 4.1 01:25:50 10° SSW 01:31:08 81° WNW 01:36:34 10° NNE
DMSP B5D2-2 3.9 01:29:04 10° NNE 01:34:23 82° ESE 01:39:39 10° S
BREEZE-M DEB (TANK) 4.3 01:36:44 10° NNW 01:40:45 40° NE 01:42:24 36° ENE
Cosmos 1125 Rocket 3.3 01:36:00 10° SSW 01:41:17 81° ESE 01:46:36 10° NNE
SJ-6B 4.3 01:44:19 27° N 01:44:19 27° N 01:46:07 10° N
Delta 128 4.4 01:40:07 10° W 01:44:09 39° SSW 01:44:09 39° SSW
Resurs 01 Rocket 4.2 01:49:34 11° NNE 01:49:34 11° NNE 01:49:43 10° NNE
Cosmos 2084 Rocket 4.1 01:41:53 10° NW 01:46:16 53° WSW 01:46:48 50° SW
Cosmos 1707 3.6 01:42:36 10° NNW 01:46:18 47° W 01:46:33 46° WSW
USA 234 3.8 01:46:40 10° NNE 01:53:02 57° NW 01:59:25 10° WSW
Cosmos 2034 Rocket 4.5 01:50:56 10° SSW 01:57:11 60° W 02:03:28 10° N
H-2A R/B 4.0 01:54:30 10° SSW 01:58:32 26° W 02:02:39 10° NW
Nadezhda 4 Rocket 3.9 01:55:59 10° N 02:02:07 83° W 02:03:08 64° S
CZ-2C R/B 4.2 02:09:08 10° N 02:14:09 36° WNW 02:19:11 10° SW
ATLAS 2AS CENTAUR R/B 2.9 02:20:44 10° SSW 02:33:18 28° NNE 02:36:36 10° NNE
CENTAUR R/B 3.6 02:40:40 10° NNW 02:47:17 53° NNE 02:47:17 53° NNE
USA 238 DEB 4.5 02:50:08 10° NNW 02:55:26 52° NW 02:55:26 52° NW
USA 238 4.5 02:50:15 10° NNW 02:55:31 52° NW 02:55:31 52° NW
IDEFIX/ARIANE 42P 4.4 08:34:33 10° NNE 08:36:52 26° NNE 08:36:52 26° NNE
H-2A R/B 4.3 08:57:51 10° ESE 09:01:19 24° ENE 09:04:50 10° NNE
BREEZE-M DEB (TANK) 3.9 09:13:55 58° WSW 09:15:46 79° NW 09:20:14 10° NE
SL-4 R/B 3.4 09:19:51 40° ESE 09:19:51 40° ESE 09:23:45 10° ENE
CZ-2C R/B 3.4 09:15:33 10° NNE 09:20:29 45° E 09:23:04 26° SSE
Cosmos 1980 Rocket 3.0 09:22:31 38° NNW 09:22:31 38° NNW 09:26:25 10° N
Cosmos 1339 Rocket 4.4 09:22:54 46° S 09:24:57 85° E 09:31:13 10° N
PAYLOAD A 4.2 09:21:33 10° NNE 09:26:10 59° E 09:26:52 52° SE
Cosmos 2322 Rocket 3.5 09:22:33 15° SSE 09:26:38 36° ESE 09:31:46 10° NE
Landsat 5 4.4 09:22:46 10° SSE 09:27:07 51° ENE 09:31:30 10° N
SL-16 R/B 2.8 09:31:25 27° S 09:34:22 55° ESE 09:39:54 10° NNE
Cosmos 2263 Rocket 4.0 09:31:45 10° N 09:36:46 32° ENE 09:41:46 10° SE
Chandra Rocket (1) 4.1 09:31:38 33° W 09:39:11 63° SSW 09:45:01 10° ESE
Meteor 1-14 Rocket 4.0 09:37:10 10° NNW 09:42:44 75° W 09:48:14 10° S
NOSS 3-3 (A) 4.0 09:45:00 48° WNW 09:45:31 49° NW 09:51:30 10° NNE
NOSS 3-3 (C) 3.9 09:45:10 48° WNW 09:45:39 49° NW 09:51:34 10° NNE
Celestis-02/Orion 38 4.5 09:41:57 10° SSE 09:47:14 65° WSW 09:52:26 10° NNW
CSL-04 DEB 4.4 09:44:09 10° SSE 09:48:23 89° ENE 09:52:43 10° NNW
Lacrosse 5 4.1 09:48:47 12° NNW 09:48:47 12° NNW 09:50:25 10° NNW
Meteor 2-6 Rocket 4.1 09:48:56 42° SSW 09:50:45 66° W 09:56:27 10° N
Cosmos 1238 Rocket 3.9 09:45:35 10° NNW 09:51:59 61° W 09:57:42 10° S
Cosmos 1707 Rocket 4.1 09:49:42 10° S 09:53:56 57° E 09:58:10 10° NNE
Cosmos 921 Rocket 3.8 09:55:09 34° NW 09:55:09 34° NW 09:58:03 10° N
IRIDIUM 104 4.3 09:52:43 10° N 09:57:57 84° E 10:03:10 10° S
Cosmos 2228 Rocket 4.1 10:01:20 29° NW 10:01:20 29° NW 10:04:05 10° NNW
Meteor 1-5 Rocket 4.1 09:54:45 10° N 10:00:06 81° E 10:05:33 10° S
IRIDIUM 114 4.2 10:01:52 10° N 10:07:05 78° W 10:12:17 10° S
Meteor 1-4 Rocket 2.7 10:09:30 46° WNW 10:09:30 46° WNW 10:12:31 10° N
USA 32 4.4 10:06:16 10° N 10:11:30 68° E 10:16:42 10° S
Cosmos 1934 Rocket 4.4 10:06:45 10° NNW 10:12:08 34° W 10:17:23 11° SSW
Skynet4D Del rocket 4.0 10:09:50 31° WSW 10:12:16 52° S 10:18:17 10° ESE
ADEOS 3.5 10:09:50 10° NNE 10:15:04 88° E 10:20:17 10° SSW
IRIDIUM 103 4.3 10:11:04 10° N 10:16:12 62° W 10:21:20 10° SSW
Cosmos 1536 4.0 10:14:10 10° N 10:18:05 45° E 10:21:59 10° SSE
ADEOS Rocket 3.3 10:11:03 10° SSE 10:18:15 86° ENE 10:24:43 10° NNW
DELTA 4 R/B 4.0 10:09:17 21° W 10:19:38 51° SSW 10:24:19 10° SE
USA 234 3.2 10:13:54 10° SE 10:20:25 81° SW 10:26:59 10° NW
Cosmos 1484 Rocket 2.9 10:17:38 10° NNE 10:21:38 78° E 10:25:38 10° S
Cosmos 1869 Rocket 3.7 10:20:50 10° NNW 10:25:01 49° W 10:29:10 10° SSW
ALOS 2.3 10:20:44 10° NNE 10:25:24 81° ESE 10:30:04 10° S
Meteor 1-11 Rocket 3.7 10:21:23 10° N 10:27:10 90° E 10:32:46 10° S
Cosmos 1814 Rocket 4.5 10:22:29 10° S 10:27:33 62° ESE 10:32:42 10° NNE
Cosmos 1862 Rocket 3.9 10:23:23 10° S 10:27:45 67° E 10:32:06 10° NNE
ERS-2 2.3 10:24:43 10° S 10:28:14 46° W 10:31:46 10° NNW
Cosmos 1153 Rocket 4.5 10:22:34 10° N 10:28:55 71° W 10:35:09 10° S
FALCON 9 DEB 4.1 10:31:12 25° W 10:32:19 32° NW 10:35:26 10° NNE
Meteor 1-31 Rocket 2.7 10:28:38 10° NNE 10:32:28 86° ESE 10:36:19 10° SSW
Cosmos 841 Rocket 3.5 10:27:31 10° SSW 10:32:42 89° WNW 10:37:58 10° NNE
Meteor 1-27 Rocket 3.9 10:27:14 10° SSW 10:33:03 58° W 10:38:55 10° N
H-2A R/B 3.2 10:33:45 10° SSW 10:37:09 23° W 10:40:36 10° NW
SJ 16-02 1.4 10:35:49 10° NNW 10:40:04 52° WSW 10:44:20 10° S
Cosmos 1763 Rocket 4.2 10:38:57 13° SW 10:43:11 33° WNW 10:47:58 10° N
Cosmos 1000 Rocket 4.4 10:37:35 10° SSW 10:43:46 69° W 10:49:57 10° N
Cosmos 1570 Rocket 4.0 10:40:08 10° SSW 10:45:23 68° WNW 10:50:42 10° N
Cosmos 2360 Rocket 2.2 10:49:13 10° SSW 10:54:50 68° WNW 11:00:30 10° NNE
CZ-4B R/B 1.9 10:54:00 10° SSW 10:56:47 32° W 10:59:39 10° NNW
SJ-12 3.9 10:54:08 10° N 10:58:16 77° WNW 11:02:23 10° SSW
CZ-2C R/B 4.0 10:54:58 10° NNW 10:58:17 18° WNW 11:01:37 10° WSW
SL-4 R/B 3.5 10:55:28 11° W 10:59:09 28° NW 11:03:18 10° NNE
Meteor 2-20 4.5 10:53:37 10° SSW 10:59:42 66° W 11:05:47 10° N
COSMO-SKYMED 1 3.2 10:56:07 10° SSE 11:00:23 63° ENE 11:04:41 10° N
Cosmos 1725 Rocket 4.5 10:59:16 10° N 11:05:25 68° E 11:11:32 10° SSE
Cosmos 1666 3.7 11:02:34 10° NW 11:05:40 24° W 11:08:44 10° SW
DEBRIS 3.9 11:05:29 10° NW 11:08:43 77° NE 11:19:26 10° SE
Cosmos 1544 4.5 11:05:57 10° N 11:09:23 43° E 11:12:47 10° SSE
Cosmos 2100 Rocket 4.2 11:04:26 10° NNW 11:10:35 52° W 11:16:41 10° SSW
Cosmos 2322 Rocket 3.3 11:06:05 10° WSW 11:10:40 25° WNW 11:15:18 10° N
Cosmos 1802 Rocket 4.0 11:07:11 10° NNW 11:13:20 68° W 11:19:34 10° S
